Weather History for KLVN - July, 2013

Change the Weather History Date:

Sunday, July 7, 2013

  Actual Average Record
Temperature  
Mean Temperature 80 °F -  
Max Temperature 89 °F 83 °F 98 °F (1988)
Min Temperature 71 °F 61 °F 42 °F (1984)
Cooling Degree Days 15    
Growing Degree Days 30 (Base 50)    
Moisture  
Dew Point 67 °F    
Average Humidity 65    
Maximum Humidity 94    
Minimum Humidity 49    
Precipitation  
Precipitation 0.00 in - - ()
Sea Level Pressure  
Sea Level Pressure 29.86 in    
Wind  
Wind Speed 5 mph (SSW)    
Max Wind Speed 9 mph    
Max Gust Speed 16 mph    
Visibility 10 miles    
Events Rain , Thunderstorm    
Averages and records for this station are not official NWS values.
T = Trace of Precipitation, MM = Missing Value Source: NWS Daily Summary

Daily Weather History Graph

Daily Weather History Graph

Search for Another Location

Airport or City:

Trip Planner

Search our weather history database for the weather conditions in past years. The results will help you decide how hot, cold, wet, or windy it might be!

Date:

Astronomy

Jul. 07, 2013 Rise Set
Actual Time 5:35 AM CDT 8:59 PM CDT
Civil Twilight 4:59 AM CDT 9:36 PM CDT
Nautical Twilight 4:11 AM CDT 10:23 PM CDT
Astronomical Twilight 3:11 AM CDT 11:23 PM CDT
Moon 5:14 AM CDT (7/7) 8:20 PM CDT (7/7)
Length of Visible Light 16h 36m
Length of Day
15h 24m
Waning Crescent, 0% of the Moon is Illuminated
Jul 7
Waning Crescent
Jul 8
New
Jul 15
First Quarter
Jul 22
Full
Jul 29
Last Quarter

Hourly Weather History & Observations

Time (CDT) Temp. Heat Index Dew Point Humidity Pressure Visibility Wind Dir Wind Speed Gust Speed Precip Events Conditions
12:10 AM 78.8 °F - 64.4 °F 61% 29.86 in 10.0 mi South 9.2 mph - N/A   Scattered Clouds
12:31 AM 78.8 °F - 64.4 °F 61% 29.85 in 10.0 mi South 9.2 mph - N/A   Scattered Clouds
12:51 AM 78.8 °F - 64.4 °F 61% 29.85 in 10.0 mi South 9.2 mph 16.1 mph N/A   Clear
1:10 AM 77.0 °F - 64.4 °F 65% 29.85 in 10.0 mi South 9.2 mph - N/A   Clear
1:31 AM 77.0 °F - 64.4 °F 65% 29.85 in 10.0 mi South 6.9 mph - N/A   Clear
1:51 AM 77.0 °F - 64.4 °F 65% 29.84 in 10.0 mi South 6.9 mph - N/A   Clear
2:10 AM 77.0 °F - 64.4 °F 65% 29.85 in 10.0 mi SSW 8.1 mph - N/A   Clear
2:31 AM 77.0 °F - 64.4 °F 65% 29.85 in 10.0 mi SSW 8.1 mph - N/A   Clear
2:51 AM 75.2 °F - 64.4 °F 69% 29.85 in 10.0 mi South 5.8 mph - N/A   Mostly Cloudy
3:10 AM 75.2 °F - 64.4 °F 69% 29.85 in 10.0 mi South 5.8 mph - N/A   Mostly Cloudy
3:31 AM 75.2 °F - 64.4 °F 69% 29.85 in 10.0 mi SSW 4.6 mph - N/A   Scattered Clouds
3:51 AM 75.2 °F - 64.4 °F 69% 29.84 in 10.0 mi SSW 4.6 mph - N/A   Clear
4:10 AM 75.2 °F - 64.4 °F 69% 29.84 in 10.0 mi SSW 5.8 mph - N/A   Clear
4:31 AM 75.2 °F - 64.4 °F 69% 29.85 in 10.0 mi Calm Calm - N/A   Scattered Clouds
4:51 AM 75.2 °F - 64.4 °F 69% 29.85 in 10.0 mi SW 4.6 mph - N/A   Scattered Clouds
5:10 AM 75.2 °F - 64.4 °F 69% 29.85 in 10.0 mi Calm Calm - N/A   Clear
5:31 AM 73.4 °F - 64.4 °F 73% 29.86 in 10.0 mi SW 3.5 mph - N/A   Clear
5:50 AM 73.4 °F - 64.4 °F 73% 29.85 in 10.0 mi Calm Calm - N/A   Clear
6:11 AM 73.4 °F - 64.4 °F 73% 29.85 in 10.0 mi Calm Calm - N/A   Clear
6:31 AM 73.4 °F - 64.4 °F 73% 29.85 in 10.0 mi Calm Calm - N/A   Clear
6:50 AM 71.6 °F - 64.4 °F 78% 29.86 in 10.0 mi Calm Calm - N/A   Clear
7:11 AM 71.6 °F - 64.4 °F 78% 29.86 in 5.0 mi Calm Calm - N/A   Haze
7:30 AM 73.4 °F - 64.4 °F 73% 29.86 in 10.0 mi Calm Calm - N/A   Clear
7:50 AM 75.2 °F - 64.4 °F 69% 29.87 in 10.0 mi SSW 3.5 mph - N/A   Clear
8:11 AM 75.2 °F - 66.2 °F 73% 29.87 in 10.0 mi Calm Calm - N/A   Clear
8:30 AM 77.0 °F - 66.2 °F 69% 29.87 in 10.0 mi SSW 4.6 mph - N/A   Clear
8:50 AM 78.8 °F - 66.2 °F 65% 29.87 in 10.0 mi SSW 3.5 mph - N/A   Clear
9:11 AM 78.8 °F - 66.2 °F 65% 29.87 in 10.0 mi SW 6.9 mph - N/A   Clear
9:30 AM 78.8 °F - 66.2 °F 65% 29.87 in 10.0 mi SW 4.6 mph - N/A   Clear
9:51 AM 80.6 °F 82.3 °F 64.4 °F 58% 29.86 in 10.0 mi SSW 6.9 mph - N/A   Clear
10:11 AM 80.6 °F 82.3 °F 64.4 °F 58% 29.87 in 10.0 mi SW 5.8 mph - N/A   Clear
10:30 AM 80.6 °F 82.7 °F 66.2 °F 61% 29.86 in 10.0 mi SW 3.5 mph - N/A   Clear
10:51 AM 80.6 °F 82.7 °F 66.2 °F 61% 29.86 in 10.0 mi SSW 3.5 mph - N/A   Scattered Clouds
11:10 AM 82.4 °F 84.6 °F 66.2 °F 58% 29.86 in 10.0 mi WSW 3.5 mph - N/A   Scattered Clouds
11:30 AM 82.4 °F 84.6 °F 66.2 °F 58% 29.86 in 10.0 mi SW 4.6 mph - N/A   Scattered Clouds
11:51 AM 84.2 °F 86.6 °F 66.2 °F 55% 29.86 in 10.0 mi SSE 5.8 mph - N/A   Scattered Clouds
12:10 PM 84.2 °F 86.6 °F 66.2 °F 55% 29.86 in 10.0 mi South 6.9 mph - N/A   Scattered Clouds
12:31 PM 84.2 °F 86.6 °F 66.2 °F 55% 29.86 in 10.0 mi South 3.5 mph - N/A   Scattered Clouds
12:51 PM 84.2 °F 86.6 °F 66.2 °F 55% 29.86 in 10.0 mi South 3.5 mph - N/A   Scattered Clouds
1:10 PM 84.2 °F 86.6 °F 66.2 °F 55% 29.86 in 10.0 mi SSE 3.5 mph - N/A   Clear
1:31 PM 86.0 °F 88.2 °F 66.2 °F 51% 29.86 in 10.0 mi South 4.6 mph - N/A   Clear
1:51 PM 86.0 °F 88.2 °F 66.2 °F 51% 29.86 in 10.0 mi South 5.8 mph - N/A   Clear
2:10 PM 87.8 °F 91.4 °F 68.0 °F 52% 29.85 in 10.0 mi SE 3.5 mph - N/A   Clear
2:31 PM 87.8 °F 90.4 °F 66.2 °F 49% 29.86 in 10.0 mi Calm Calm - N/A   Clear
2:51 PM 87.8 °F 91.4 °F 68.0 °F 52% 29.86 in 10.0 mi SW 3.5 mph - N/A   Clear
3:10 PM 87.8 °F 90.4 °F 66.2 °F 49% 29.85 in 10.0 mi South 4.6 mph - N/A   Scattered Clouds
3:31 PM 87.8 °F 91.4 °F 68.0 °F 52% 29.85 in 10.0 mi SSW 4.6 mph - N/A   Scattered Clouds
3:51 PM 87.8 °F 91.4 °F 68.0 °F 52% 29.85 in 10.0 mi Calm Calm - N/A   Scattered Clouds
4:10 PM 87.8 °F 91.4 °F 68.0 °F 52% 29.85 in 10.0 mi SW 4.6 mph - N/A   Scattered Clouds
4:31 PM 87.8 °F 91.4 °F 68.0 °F 52% 29.84 in 10.0 mi WSW 4.6 mph - N/A   Clear
4:51 PM 89.6 °F 93.4 °F 68.0 °F 49% 29.84 in 10.0 mi SW 3.5 mph - N/A   Clear
5:10 PM 87.8 °F 91.4 °F 68.0 °F 52% 29.84 in 10.0 mi SW 3.5 mph - N/A   Clear
5:31 PM 87.8 °F 91.4 °F 68.0 °F 52% 29.84 in 10.0 mi WSW 3.5 mph - N/A   Clear
5:50 PM 89.6 °F 93.4 °F 68.0 °F 49% 29.83 in 10.0 mi SW 3.5 mph - N/A   Clear
6:10 PM 87.8 °F 91.4 °F 68.0 °F 52% 29.83 in 10.0 mi South 5.8 mph - N/A   Clear
6:31 PM 87.8 °F 92.6 °F 69.8 °F 55% 29.82 in 10.0 mi WSW 3.5 mph - N/A   Clear
6:50 PM 86.0 °F 90.4 °F 69.8 °F 58% 29.83 in 10.0 mi Calm Calm - N/A   Clear
7:10 PM 82.4 °F 86.3 °F 69.8 °F 66% 29.83 in 10.0 mi Calm Calm - N/A   Clear
7:31 PM 82.4 °F 86.3 °F 69.8 °F 66% 29.84 in 10.0 mi NW 5.8 mph - N/A   Clear
7:50 PM 84.2 °F 88.4 °F 69.8 °F 62% 29.85 in 10.0 mi NW 4.6 mph - N/A   Mostly Cloudy
8:11 PM 84.2 °F 88.4 °F 69.8 °F 62% 29.84 in 10.0 mi NNW 4.6 mph - N/A   Mostly Cloudy
8:31 PM 84.2 °F 88.4 °F 69.8 °F 62% 29.85 in 10.0 mi North 8.1 mph - N/A Thunderstorm Mostly Cloudy
8:50 PM 80.6 °F 82.7 °F 66.2 °F 61% 29.86 in 10.0 mi North 9.2 mph - N/A Rain Light Rain
9:11 PM 77.0 °F - 69.8 °F 78% 29.89 in 10.0 mi North 4.6 mph - N/A Rain Light Rain
9:30 PM 75.2 °F - 69.8 °F 83% 29.88 in 4.0 mi NNE 5.8 mph - N/A Rain Light Rain
9:50 PM 75.2 °F - 69.8 °F 83% 29.88 in 10.0 mi Calm Calm - N/A Thunderstorm Scattered Clouds
10:11 PM 75.2 °F - 71.6 °F 89% 29.87 in 10.0 mi Calm Calm - N/A   Scattered Clouds
10:30 PM 73.4 °F - 69.8 °F 88% 29.87 in 10.0 mi SSW 3.5 mph - N/A   Clear
10:50 PM 73.4 °F - 69.8 °F 88% 29.87 in 10.0 mi SW 4.6 mph - N/A   Clear
11:10 PM 73.4 °F - 69.8 °F 88% 29.87 in 10.0 mi WSW 3.5 mph - N/A   Clear
11:30 PM 71.6 °F - 69.8 °F 94% 29.88 in 10.0 mi West 4.6 mph - N/A   Clear
11:51 PM 71.6 °F - 69.8 °F 94% 29.88 in 10.0 mi NW 5.8 mph - N/A   Clear